Time,TemperatureF,DewpointF,PressureIn,WindDirection,WindDirectionDegrees,WindSpeedMPH,WindSpeedGustMPH,Humidity,HourlyPrecipIn,Conditions,Clouds,dailyrainin,SoftwareType,DateUTC
2013-08-17 00:03:00,68.2,55.0,30.12,SE,135,3.0,4.0,63,0.00,,,0.00,meteohub,2013-08-17 05:03:00,
2013-08-17 00:08:00,68.2,55.0,30.12,East,90,4.0,4.0,63,0.00,,,0.00,meteohub,2013-08-17 05:08:00,
2013-08-17 00:13:00,68.0,54.9,30.12,SE,135,3.0,4.0,63,0.00,,,0.00,meteohub,2013-08-17 05:13:00,
2013-08-17 00:18:00,68.0,54.9,30.12,SE,135,4.0,4.0,63,0.00,,,0.00,meteohub,2013-08-17 05:18:00,
2013-08-17 00:23:00,68.0,54.9,30.12,SE,135,5.0,5.0,63,0.00,,,0.00,meteohub,2013-08-17 05:23:00,
2013-08-17 00:28:00,68.4,55.2,30.12,SE,135,5.0,5.0,63,0.00,,,0.00,meteohub,2013-08-17 05:28:00,
2013-08-17 00:33:00,68.4,55.2,30.12,East,90,5.0,7.0,63,0.00,,,0.00,meteohub,2013-08-17 05:33:00,
2013-08-17 00:38:00,68.4,54.9,30.12,SE,135,5.0,7.0,62,0.00,,,0.00,meteohub,2013-08-17 05:38:00,
2013-08-17 00:43:00,68.4,54.9,30.12,East,90,4.0,7.0,62,0.00,,,0.00,meteohub,2013-08-17 05:43:00,
2013-08-17 00:48:00,68.0,54.5,30.12,SE,135,4.0,7.0,62,0.00,,,0.00,meteohub,2013-08-17 05:48:00,
2013-08-17 00:54:00,68.0,54.9,30.12,SE,135,5.0,7.0,63,0.00,,,0.00,meteohub,2013-08-17 05:54:00,
2013-08-17 00:59:00,67.6,55.0,30.12,SE,135,3.0,6.0,64,0.00,,,0.00,meteohub,2013-08-17 05:59:00,
2013-08-17 01:04:00,67.6,55.0,30.12,SE,135,4.0,6.0,64,0.00,,,0.00,meteohub,2013-08-17 06:04:00,
2013-08-17 01:09:00,67.6,55.0,30.12,SE,135,4.0,6.0,64,0.00,,,0.00,meteohub,2013-08-17 06:09:00,
2013-08-17 01:14:00,67.5,54.9,30.12,East,90,5.0,6.0,64,0.00,,,0.00,meteohub,2013-08-17 06:14:00,
2013-08-17 01:19:00,67.5,54.5,30.12,East,90,5.0,5.0,63,0.00,,,0.00,meteohub,2013-08-17 06:19:00,
2013-08-17 01:24:00,67.5,54.0,30.12,SE,135,4.0,8.0,62,0.00,,,0.00,meteohub,2013-08-17 06:24:00,
2013-08-17 01:29:00,67.3,53.8,30.12,East,90,4.0,8.0,62,0.00,,,0.00,meteohub,2013-08-17 06:29:00,
2013-08-17 01:34:00,67.1,54.1,30.12,SE,135,4.0,8.0,63,0.00,,,0.00,meteohub,2013-08-17 06:34:00,
2013-08-17 01:39:00,67.1,54.1,30.13,SE,135,4.0,6.0,63,0.00,,,0.00,meteohub,2013-08-17 06:39:00,
2013-08-17 01:44:00,67.1,54.1,30.12,SE,135,4.0,6.0,63,0.00,,,0.00,meteohub,2013-08-17 06:44:00,
2013-08-17 01:49:00,67.1,54.1,30.12,SE,135,4.0,6.0,63,0.00,,,0.00,meteohub,2013-08-17 06:49:00,
2013-08-17 01:54:00,66.9,54.0,30.13,SE,135,4.0,5.0,63,0.00,,,0.00,meteohub,2013-08-17 06:54:00,
2013-08-17 01:59:00,66.9,54.0,30.12,SE,135,4.0,5.0,63,0.00,,,0.00,meteohub,2013-08-17 06:59:00,
2013-08-17 02:04:00,66.9,53.4,30.12,SE,135,4.0,5.0,62,0.00,,,0.00,meteohub,2013-08-17 07:04:00,
2013-08-17 02:09:00,66.9,53.4,30.12,East,90,4.0,5.0,62,0.00,,,0.00,meteohub,2013-08-17 07:09:00,
2013-08-17 02:14:00,66.9,53.4,30.12,East,90,4.0,7.0,62,0.00,,,0.00,meteohub,2013-08-17 07:14:00,
2013-08-17 02:19:00,66.9,53.1,30.12,SE,135,4.0,7.0,61,0.00,,,0.00,meteohub,2013-08-17 07:19:00,
2013-08-17 02:24:00,67.1,53.2,30.12,SE,135,6.0,7.0,61,0.00,,,0.00,meteohub,2013-08-17 07:24:00,
2013-08-17 02:29:00,67.1,52.7,30.12,East,90,5.0,7.0,60,0.00,,,0.00,meteohub,2013-08-17 07:29:00,
2013-08-17 02:34:00,67.1,52.7,30.12,SE,135,5.0,7.0,60,0.00,,,0.00,meteohub,2013-08-17 07:34:00,
2013-08-17 02:40:00,67.1,52.7,30.12,SE,135,5.0,6.0,60,0.00,,,0.00,meteohub,2013-08-17 07:40:00,
2013-08-17 02:45:00,67.1,52.7,30.12,East,90,5.0,5.0,60,0.00,,,0.00,meteohub,2013-08-17 07:45:00,
2013-08-17 02:50:00,67.1,52.7,30.12,SE,135,4.0,6.0,60,0.00,,,0.00,meteohub,2013-08-17 07:50:00,
2013-08-17 02:55:00,66.9,53.1,30.12,SE,135,4.0,6.0,61,0.00,,,0.00,meteohub,2013-08-17 07:55:00,
2013-08-17 03:00:00,66.9,53.1,30.12,SE,135,4.0,6.0,61,0.00,,,0.00,meteohub,2013-08-17 08:00:00,
2013-08-17 03:05:00,66.7,52.9,30.12,East,90,4.0,6.0,61,0.00,,,0.00,meteohub,2013-08-17 08:05:00,
2013-08-17 03:10:00,66.7,52.9,30.12,SE,135,5.0,5.0,61,0.00,,,0.00,meteohub,2013-08-17 08:10:00,
2013-08-17 03:15:00,66.9,53.1,30.12,East,90,4.0,5.0,61,0.00,,,0.00,meteohub,2013-08-17 08:15:00,
2013-08-17 03:20:00,66.9,53.4,30.12,East,90,5.0,5.0,62,0.00,,,0.00,meteohub,2013-08-17 08:20:00,
2013-08-17 03:25:00,66.9,54.0,30.12,South,180,5.0,7.0,63,0.00,,,0.00,meteohub,2013-08-17 08:25:00,
2013-08-17 03:30:00,66.7,53.8,30.12,East,90,4.0,7.0,63,0.00,,,0.00,meteohub,2013-08-17 08:30:00,
2013-08-17 03:35:00,66.7,54.1,30.12,East,90,4.0,5.0,64,0.00,,,0.00,meteohub,2013-08-17 08:35:00,
2013-08-17 03:40:00,66.7,54.1,30.12,SE,135,4.0,5.0,64,0.00,,,0.00,meteohub,2013-08-17 08:40:00,
2013-08-17 03:45:00,66.7,54.1,30.12,East,90,4.0,4.0,64,0.00,,,0.00,meteohub,2013-08-17 08:45:00,
2013-08-17 03:50:00,66.7,54.1,30.12,SE,135,5.0,5.0,64,0.00,,,0.00,meteohub,2013-08-17 08:50:00,
2013-08-17 03:55:00,66.4,53.8,30.12,East,90,4.0,5.0,64,0.00,,,0.00,meteohub,2013-08-17 08:55:00,
2013-08-17 04:00:00,66.0,54.3,30.13,SE,135,4.0,5.0,66,0.00,,,0.00,meteohub,2013-08-17 09:00:00,
2013-08-17 04:05:00,65.7,54.0,30.13,South,180,4.0,5.0,66,0.00,,,0.00,meteohub,2013-08-17 09:05:00,
2013-08-17 04:10:00,65.1,53.4,30.13,East,90,2.0,4.0,66,0.00,,,0.00,meteohub,2013-08-17 09:10:00,
2013-08-17 04:15:00,64.6,53.4,30.13,East,90,2.0,4.0,67,0.00,,,0.00,meteohub,2013-08-17 09:15:00,
2013-08-17 04:20:00,64.2,53.1,30.13,East,90,2.0,4.0,67,0.00,,,0.00,meteohub,2013-08-17 09:20:00,
2013-08-17 04:25:00,63.7,52.9,30.13,East,90,2.0,3.0,68,0.00,,,0.00,meteohub,2013-08-17 09:25:00,
2013-08-17 04:30:00,63.3,53.1,30.14,East,90,2.0,3.0,69,0.00,,,0.00,meteohub,2013-08-17 09:30:00,
2013-08-17 04:35:00,63.0,53.1,30.14,East,90,0.0,3.0,70,0.00,,,0.00,meteohub,2013-08-17 09:35:00,
2013-08-17 04:40:00,62.8,53.2,30.14,NE,45,3.0,3.0,71,0.00,,,0.00,meteohub,2013-08-17 09:40:00,
2013-08-17 04:46:00,62.6,53.1,30.14,NE,45,4.0,4.0,71,0.00,,,0.00,meteohub,2013-08-17 09:46:00,
2013-08-17 04:51:00,62.4,53.2,30.14,East,90,4.0,4.0,72,0.00,,,0.00,meteohub,2013-08-17 09:51:00,
2013-08-17 04:56:00,62.4,53.2,30.14,NE,45,2.0,4.0,72,0.00,,,0.00,meteohub,2013-08-17 09:56:00,
2013-08-17 05:01:00,62.4,53.6,30.14,NE,45,2.0,4.0,73,0.00,,,0.00,meteohub,2013-08-17 10:01:00,
2013-08-17 05:06:00,62.2,53.4,30.14,East,90,2.0,4.0,73,0.00,,,0.00,meteohub,2013-08-17 10:06:00,
2013-08-17 05:11:00,62.2,53.4,30.14,East,90,3.0,4.0,73,0.00,,,0.00,meteohub,2013-08-17 10:11:00,
2013-08-17 05:16:00,62.2,53.4,30.14,NE,45,4.0,4.0,73,0.00,,,0.00,meteohub,2013-08-17 10:16:00,
2013-08-17 05:21:00,62.2,53.8,30.14,NE,45,4.0,4.0,74,0.00,,,0.00,meteohub,2013-08-17 10:21:00,
2013-08-17 05:26:00,62.2,53.8,30.14,NE,45,2.0,4.0,74,0.00,,,0.00,meteohub,2013-08-17 10:26:00,
2013-08-17 05:31:00,62.1,53.6,30.14,East,90,4.0,4.0,74,0.00,,,0.00,meteohub,2013-08-17 10:31:00,
2013-08-17 05:36:00,62.1,53.6,30.14,NE,45,4.0,4.0,74,0.00,,,0.00,meteohub,2013-08-17 10:36:00,
2013-08-17 05:41:00,62.1,53.6,30.15,East,90,4.0,5.0,74,0.00,,,0.00,meteohub,2013-08-17 10:41:00,
2013-08-17 05:46:00,62.1,54.0,30.15,East,90,3.0,5.0,75,0.00,,,0.00,meteohub,2013-08-17 10:46:00,
2013-08-17 05:51:00,61.9,53.8,30.15,East,90,2.0,5.0,75,0.00,,,0.00,meteohub,2013-08-17 10:51:00,
2013-08-17 05:56:00,61.7,53.8,30.15,East,90,2.0,4.0,75,0.00,,,0.00,meteohub,2013-08-17 10:56:00,
2013-08-17 06:01:00,61.3,53.8,30.14,East,90,2.0,4.0,76,0.00,,,0.00,meteohub,2013-08-17 11:01:00,
2013-08-17 06:06:00,61.3,54.1,30.14,East,90,3.0,3.0,77,0.00,,,0.00,meteohub,2013-08-17 11:06:00,
2013-08-17 06:11:00,61.2,54.0,30.14,East,90,0.0,4.0,77,0.00,,,0.00,meteohub,2013-08-17 11:11:00,
2013-08-17 06:16:00,61.2,54.0,30.15,North,0,5.0,5.0,77,0.00,,,0.00,meteohub,2013-08-17 11:16:00,
2013-08-17 06:21:00,61.5,54.7,30.15,NE,45,4.0,5.0,78,0.00,,,0.00,meteohub,2013-08-17 11:21:00,
2013-08-17 06:26:00,61.5,54.3,30.15,NE,45,5.0,6.0,77,0.00,,,0.00,meteohub,2013-08-17 11:26:00,
2013-08-17 06:31:00,61.9,54.7,30.15,East,90,4.0,6.0,77,0.00,,,0.00,meteohub,2013-08-17 11:31:00,
2013-08-17 06:36:00,61.9,54.3,30.15,East,90,3.0,6.0,76,0.00,,,0.00,meteohub,2013-08-17 11:36:00,
2013-08-17 06:42:00,62.1,54.3,30.15,NE,45,2.0,5.0,76,0.00,,,0.00,meteohub,2013-08-17 11:42:00,
2013-08-17 06:47:00,62.2,54.5,30.15,East,90,3.0,4.0,76,0.00,,,0.00,meteohub,2013-08-17 11:47:00,
2013-08-17 06:52:00,62.1,54.3,30.15,NE,45,4.0,4.0,76,0.00,,,0.00,meteohub,2013-08-17 11:52:00,
2013-08-17 06:57:00,61.9,54.7,30.16,West,270,4.0,4.0,77,0.00,,,0.00,meteohub,2013-08-17 11:57:00,
2013-08-17 07:02:00,61.9,54.7,30.16,NE,45,4.0,5.0,77,0.00,,,0.00,meteohub,2013-08-17 12:02:00,
2013-08-17 07:07:00,61.9,54.7,30.16,NE,45,4.0,5.0,77,0.00,,,0.00,meteohub,2013-08-17 12:07:00,
2013-08-17 07:12:00,61.9,54.9,30.16,NE,45,3.0,6.0,78,0.00,,,0.00,meteohub,2013-08-17 12:12:00,
2013-08-17 07:17:00,62.1,55.0,30.16,East,90,4.0,6.0,78,0.00,,,0.00,meteohub,2013-08-17 12:17:00,
2013-08-17 07:22:00,62.1,55.0,30.16,East,90,3.0,6.0,78,0.00,,,0.00,meteohub,2013-08-17 12:22:00,
2013-08-17 07:27:00,62.1,55.0,30.16,East,90,6.0,6.0,78,0.00,,,0.00,meteohub,2013-08-17 12:27:00,
2013-08-17 07:32:00,62.2,55.2,30.17,SE,135,4.0,6.0,78,0.00,,,0.00,meteohub,2013-08-17 12:32:00,
2013-08-17 07:37:00,62.2,55.2,30.17,East,90,2.0,6.0,78,0.00,,,0.00,meteohub,2013-08-17 12:37:00,
2013-08-17 07:42:00,62.4,55.0,30.17,East,90,3.0,6.0,77,0.00,,,0.00,meteohub,2013-08-17 12:42:00,
2013-08-17 07:47:00,62.4,55.0,30.17,NE,45,3.0,5.0,77,0.00,,,0.00,meteohub,2013-08-17 12:47:00,
2013-08-17 07:52:00,62.6,55.2,30.17,SE,135,6.0,6.0,77,0.00,,,0.00,meteohub,2013-08-17 12:52:00,
2013-08-17 07:57:00,62.8,55.0,30.18,SE,135,5.0,6.0,76,0.00,,,0.00,meteohub,2013-08-17 12:57:00,
2013-08-17 08:02:00,63.0,55.6,30.17,East,90,4.0,6.0,77,0.00,,,0.00,meteohub,2013-08-17 13:02:00,
2013-08-17 08:07:00,63.0,55.9,30.17,SE,135,4.0,6.0,78,0.00,,,0.00,meteohub,2013-08-17 13:07:00,
2013-08-17 08:12:00,63.1,55.8,30.17,SE,135,4.0,6.0,77,0.00,,,0.00,meteohub,2013-08-17 13:12:00,
2013-08-17 08:17:00,63.3,55.6,30.17,SE,135,6.0,7.0,76,0.00,,,0.00,meteohub,2013-08-17 13:17:00,
2013-08-17 08:22:00,63.5,56.1,30.17,East,90,4.0,7.0,77,0.00,,,0.00,meteohub,2013-08-17 13:22:00,
2013-08-17 08:27:00,63.9,56.5,30.18,East,90,4.0,7.0,77,0.00,,,0.00,meteohub,2013-08-17 13:27:00,
2013-08-17 08:32:00,64.4,57.0,30.17,East,90,4.0,6.0,77,0.00,,,0.00,meteohub,2013-08-17 13:32:00,
2013-08-17 08:38:00,64.8,57.0,30.17,East,90,3.0,5.0,76,0.00,,,0.00,meteohub,2013-08-17 13:38:00,
2013-08-17 08:43:00,64.9,57.2,30.17,NE,45,4.0,5.0,76,0.00,,,0.00,meteohub,2013-08-17 13:43:00,
2013-08-17 08:48:00,65.7,57.9,30.17,East,90,4.0,5.0,76,0.00,,,0.00,meteohub,2013-08-17 13:48:00,
2013-08-17 08:53:00,66.6,58.5,30.17,East,90,6.0,7.0,75,0.00,,,0.00,meteohub,2013-08-17 13:53:00,
2013-08-17 08:58:00,67.6,59.0,30.17,East,90,4.0,7.0,74,0.00,,,0.00,meteohub,2013-08-17 13:58:00,
2013-08-17 09:03:00,68.4,58.3,30.17,SE,135,6.0,10.0,70,0.00,,,0.00,meteohub,2013-08-17 14:03:00,
2013-08-17 09:08:00,68.7,58.1,30.17,SE,135,5.0,10.0,69,0.00,,,0.00,meteohub,2013-08-17 14:08:00,
2013-08-17 09:13:00,69.1,58.1,30.17,SE,135,7.0,10.0,68,0.00,,,0.00,meteohub,2013-08-17 14:13:00,
2013-08-17 09:18:00,69.6,58.6,30.17,South,180,5.0,8.0,68,0.00,,,0.00,meteohub,2013-08-17 14:18:00,
2013-08-17 09:23:00,70.2,58.6,30.17,SE,135,7.0,8.0,67,0.00,,,0.00,meteohub,2013-08-17 14:23:00,
2013-08-17 09:28:00,70.9,59.0,30.17,SE,135,6.0,8.0,66,0.00,,,0.00,meteohub,2013-08-17 14:28:00,
2013-08-17 09:33:00,71.1,58.6,30.17,East,90,4.0,7.0,65,0.00,,,0.00,meteohub,2013-08-17 14:33:00,
2013-08-17 09:38:00,71.2,58.5,30.17,SE,135,7.0,7.0,64,0.00,,,0.00,meteohub,2013-08-17 14:38:00,
2013-08-17 09:43:00,71.6,58.3,30.17,SE,135,5.0,9.0,63,0.00,,,0.00,meteohub,2013-08-17 14:43:00,
2013-08-17 09:48:00,71.6,57.9,30.17,SE,135,8.0,10.0,62,0.00,,,0.00,meteohub,2013-08-17 14:48:00,
2013-08-17 09:53:00,72.0,58.3,30.17,East,90,4.0,10.0,62,0.00,,,0.00,meteohub,2013-08-17 14:53:00,
2013-08-17 09:58:00,72.3,58.6,30.17,SE,135,8.0,10.0,62,0.00,,,0.00,meteohub,2013-08-17 14:58:00,
2013-08-17 10:03:00,72.7,58.8,30.17,SE,135,4.0,10.0,62,0.00,,,0.00,meteohub,2013-08-17 15:03:00,
2013-08-17 10:08:00,73.0,58.8,30.17,East,90,8.0,8.0,61,0.00,,,0.00,meteohub,2013-08-17 15:08:00,
2013-08-17 10:13:00,73.2,59.0,30.16,SE,135,9.0,11.0,61,0.00,,,0.00,meteohub,2013-08-17 15:13:00,
2013-08-17 10:18:00,73.2,59.0,30.17,SE,135,7.0,11.0,61,0.00,,,0.00,meteohub,2013-08-17 15:18:00,
2013-08-17 10:23:00,73.8,59.5,30.16,South,180,5.0,11.0,61,0.00,,,0.00,meteohub,2013-08-17 15:23:00,
2013-08-17 10:29:00,74.7,60.3,30.16,East,90,7.0,10.0,61,0.00,,,0.00,meteohub,2013-08-17 15:29:00,
2013-08-17 10:34:00,74.7,59.4,30.17,SE,135,8.0,9.0,59,0.00,,,0.00,meteohub,2013-08-17 15:34:00,
2013-08-17 10:39:00,75.0,60.3,30.16,SE,135,6.0,9.0,60,0.00,,,0.00,meteohub,2013-08-17 15:39:00,
2013-08-17 10:44:00,75.7,59.9,30.16,East,90,4.0,8.0,58,0.00,,,0.00,meteohub,2013-08-17 15:44:00,
2013-08-17 10:49:00,76.3,60.4,30.16,SE,135,6.0,8.0,58,0.00,,,0.00,meteohub,2013-08-17 15:49:00,
2013-08-17 10:54:00,76.3,59.4,30.16,East,90,7.0,7.0,56,0.00,,,0.00,meteohub,2013-08-17 15:54:00,
2013-08-17 10:59:00,76.3,59.0,30.16,NE,45,5.0,6.0,55,0.00,,,0.00,meteohub,2013-08-17 15:59:00,
2013-08-17 11:04:00,76.5,58.1,30.16,East,90,8.0,8.0,53,0.00,,,0.00,meteohub,2013-08-17 16:04:00,
2013-08-17 11:09:00,76.5,59.2,30.16,East,90,4.0,8.0,55,0.00,,,0.00,meteohub,2013-08-17 16:09:00,
2013-08-17 11:14:00,77.2,58.6,30.15,East,90,5.0,8.0,53,0.00,,,0.00,meteohub,2013-08-17 16:14:00,
2013-08-17 11:19:00,77.4,56.7,30.15,East,90,4.0,8.0,49,0.00,,,0.00,meteohub,2013-08-17 16:19:00,
2013-08-17 11:24:00,77.7,58.1,30.15,North,0,4.0,8.0,51,0.00,,,0.00,meteohub,2013-08-17 16:24:00,
2013-08-17 11:29:00,77.9,57.7,30.15,SE,135,6.0,8.0,50,0.00,,,0.00,meteohub,2013-08-17 16:29:00,
2013-08-17 11:34:00,78.1,56.3,30.15,East,90,7.0,8.0,47,0.00,,,0.00,meteohub,2013-08-17 16:34:00,
2013-08-17 11:39:00,77.7,55.2,30.15,East,90,8.0,9.0,46,0.00,,,0.00,meteohub,2013-08-17 16:39:00,
2013-08-17 11:44:00,77.7,55.9,30.15,SE,135,5.0,9.0,47,0.00,,,0.00,meteohub,2013-08-17 16:44:00,
2013-08-17 11:49:00,77.9,55.4,30.15,East,90,6.0,9.0,46,0.00,,,0.00,meteohub,2013-08-17 16:49:00,
2013-08-17 11:54:00,78.4,55.4,30.14,SE,135,7.0,8.0,45,0.00,,,0.00,meteohub,2013-08-17 16:54:00,
2013-08-17 11:59:00,78.1,55.6,30.14,SE,135,4.0,7.0,46,0.00,,,0.00,meteohub,2013-08-17 16:59:00,
2013-08-17 12:04:00,78.1,55.0,30.14,SE,135,7.0,10.0,45,0.00,,,0.00,meteohub,2013-08-17 17:04:00,
2013-08-17 12:09:00,78.4,56.5,30.14,East,90,5.0,10.0,47,0.00,,,0.00,meteohub,2013-08-17 17:09:00,
2013-08-17 12:14:00,78.8,55.0,30.14,East,90,4.0,10.0,44,0.00,,,0.00,meteohub,2013-08-17 17:14:00,
2013-08-17 12:20:00,78.6,55.6,30.14,SE,135,12.0,12.0,45,0.00,,,0.00,meteohub,2013-08-17 17:20:00,
2013-08-17 12:25:00,78.3,55.2,30.14,South,180,10.0,10.0,45,0.00,,,0.00,meteohub,2013-08-17 17:25:00,
2013-08-17 12:30:00,78.3,55.2,30.14,East,90,7.0,12.0,45,0.00,,,0.00,meteohub,2013-08-17 17:30:00,
2013-08-17 12:35:00,78.3,55.8,30.14,SE,135,8.0,12.0,46,0.00,,,0.00,meteohub,2013-08-17 17:35:00,
2013-08-17 12:40:00,78.4,55.9,30.13,North,0,6.0,11.0,46,0.00,,,0.00,meteohub,2013-08-17 17:40:00,
2013-08-17 12:45:00,79.2,55.4,30.13,North,0,10.0,11.0,44,0.00,,,0.00,meteohub,2013-08-17 17:45:00,
2013-08-17 12:50:00,79.3,56.1,30.13,NE,45,6.0,11.0,45,0.00,,,0.00,meteohub,2013-08-17 17:50:00,
2013-08-17 12:55:00,79.7,55.9,30.13,East,90,3.0,11.0,44,0.00,,,0.00,meteohub,2013-08-17 17:55:00,
2013-08-17 13:00:00,80.1,55.6,30.12,East,90,10.0,10.0,43,0.00,,,0.00,meteohub,2013-08-17 18:00:00,
2013-08-17 13:05:00,79.7,55.2,30.13,East,90,9.0,10.0,43,0.00,,,0.00,meteohub,2013-08-17 18:05:00,
2013-08-17 13:10:00,79.5,54.5,30.12,SE,135,4.0,10.0,42,0.00,,,0.00,meteohub,2013-08-17 18:10:00,
2013-08-17 13:15:00,79.7,55.2,30.12,SE,135,2.0,10.0,43,0.00,,,0.00,meteohub,2013-08-17 18:15:00,
2013-08-17 13:20:00,80.2,55.0,30.12,East,90,6.0,9.0,42,0.00,,,0.00,meteohub,2013-08-17 18:20:00,
2013-08-17 13:25:00,80.2,55.0,30.12,NE,45,8.0,9.0,42,0.00,,,0.00,meteohub,2013-08-17 18:25:00,
2013-08-17 13:30:00,80.2,55.0,30.12,NE,45,4.0,9.0,42,0.00,,,0.00,meteohub,2013-08-17 18:30:00,
2013-08-17 13:35:00,80.2,55.0,30.12,SW,225,4.0,9.0,42,0.00,,,0.00,meteohub,2013-08-17 18:35:00,
2013-08-17 13:40:00,80.6,54.7,30.12,East,90,5.0,8.0,41,0.00,,,0.00,meteohub,2013-08-17 18:40:00,
2013-08-17 13:45:00,79.9,54.1,30.12,East,90,4.0,11.0,41,0.00,,,0.00,meteohub,2013-08-17 18:45:00,
2013-08-17 13:50:00,80.2,55.0,30.12,SE,135,4.0,11.0,42,0.00,,,0.00,meteohub,2013-08-17 18:50:00,
2013-08-17 13:56:00,80.2,55.0,30.12,NE,45,7.0,11.0,42,0.00,,,0.00,meteohub,2013-08-17 18:56:00,
2013-08-17 14:01:00,79.7,53.2,30.12,SE,135,6.0,12.0,40,0.00,,,0.00,meteohub,2013-08-17 19:01:00,
2013-08-17 14:06:00,79.5,52.3,30.12,East,90,5.0,12.0,39,0.00,,,0.00,meteohub,2013-08-17 19:06:00,
2013-08-17 14:11:00,79.7,54.5,30.11,NE,45,4.0,12.0,42,0.00,,,0.00,meteohub,2013-08-17 19:11:00,
2013-08-17 14:16:00,80.1,54.9,30.11,SE,135,3.0,10.0,42,0.00,,,0.00,meteohub,2013-08-17 19:16:00,
2013-08-17 14:21:00,80.1,54.9,30.11,SE,135,3.0,10.0,42,0.00,,,0.00,meteohub,2013-08-17 19:21:00,
2013-08-17 14:26:00,80.4,53.2,30.11,NE,45,2.0,9.0,39,0.00,,,0.00,meteohub,2013-08-17 19:26:00,
2013-08-17 14:31:00,80.8,53.6,30.11,NE,45,5.0,11.0,39,0.00,,,0.00,meteohub,2013-08-17 19:31:00,
2013-08-17 14:36:00,80.8,54.9,30.11,NE,45,2.0,11.0,41,0.00,,,0.00,meteohub,2013-08-17 19:36:00,
2013-08-17 14:41:00,80.8,54.1,30.11,East,90,5.0,8.0,40,0.00,,,0.00,meteohub,2013-08-17 19:41:00,
2013-08-17 14:46:00,81.0,52.9,30.11,South,180,8.0,8.0,38,0.00,,,0.00,meteohub,2013-08-17 19:46:00,
2013-08-17 14:51:00,80.6,54.0,30.10,SW,225,3.0,8.0,40,0.00,,,0.00,meteohub,2013-08-17 19:51:00,
2013-08-17 14:56:00,81.0,54.3,30.09,SE,135,7.0,8.0,40,0.00,,,0.00,meteohub,2013-08-17 19:56:00,
2013-08-17 15:01:00,81.0,55.0,30.10,NE,45,7.0,8.0,41,0.00,,,0.00,meteohub,2013-08-17 20:01:00,
2013-08-17 15:06:00,80.8,54.1,30.10,South,180,5.0,8.0,40,0.00,,,0.00,meteohub,2013-08-17 20:06:00,
2013-08-17 15:11:00,80.4,54.5,30.09,South,180,7.0,8.0,41,0.00,,,0.00,meteohub,2013-08-17 20:11:00,
2013-08-17 15:16:00,80.6,54.7,30.09,SE,135,5.0,10.0,41,0.00,,,0.00,meteohub,2013-08-17 20:16:00,
2013-08-17 15:21:00,80.8,53.6,30.09,East,90,4.0,10.0,39,0.00,,,0.00,meteohub,2013-08-17 20:21:00,
2013-08-17 15:26:00,81.0,54.3,30.09,SE,135,7.0,10.0,40,0.00,,,0.00,meteohub,2013-08-17 20:26:00,
2013-08-17 15:31:00,80.6,52.7,30.09,SE,135,8.0,10.0,38,0.00,,,0.00,meteohub,2013-08-17 20:31:00,
2013-08-17 15:36:00,80.8,54.9,30.09,SE,135,8.0,10.0,41,0.00,,,0.00,meteohub,2013-08-17 20:36:00,
2013-08-17 15:41:00,81.0,52.9,30.09,East,90,4.0,10.0,38,0.00,,,0.00,meteohub,2013-08-17 20:41:00,
2013-08-17 15:47:00,81.3,52.5,30.09,East,90,5.0,8.0,37,0.00,,,0.00,meteohub,2013-08-17 20:47:00,
2013-08-17 15:52:00,81.0,54.3,30.09,SE,135,7.0,8.0,40,0.00,,,0.00,meteohub,2013-08-17 20:52:00,
2013-08-17 15:57:00,81.0,53.6,30.09,East,90,5.0,8.0,39,0.00,,,0.00,meteohub,2013-08-17 20:57:00,
2013-08-17 16:02:00,81.3,55.4,30.09,South,180,4.0,8.0,41,0.00,,,0.00,meteohub,2013-08-17 21:02:00,
2013-08-17 16:07:00,81.7,55.8,30.09,SE,135,4.0,8.0,41,0.00,,,0.00,meteohub,2013-08-17 21:07:00,
2013-08-17 16:12:00,81.9,55.9,30.09,South,180,9.0,9.0,41,0.00,,,0.00,meteohub,2013-08-17 21:12:00,
2013-08-17 16:17:00,80.8,54.9,30.09,SE,135,7.0,9.0,41,0.00,,,0.00,meteohub,2013-08-17 21:17:00,
2013-08-17 16:22:00,79.2,54.7,30.09,SE,135,5.0,9.0,43,0.00,,,0.00,meteohub,2013-08-17 21:22:00,
2013-08-17 16:27:00,79.9,55.4,30.09,West,270,4.0,9.0,43,0.00,,,0.00,meteohub,2013-08-17 21:27:00,
2013-08-17 16:32:00,80.6,55.4,30.09,NW,315,3.0,7.0,42,0.00,,,0.00,meteohub,2013-08-17 21:32:00,
2013-08-17 16:37:00,80.4,55.2,30.09,SE,135,13.0,13.0,42,0.00,,,0.00,meteohub,2013-08-17 21:37:00,
2013-08-17 16:42:00,79.9,55.4,30.09,SE,135,4.0,13.0,43,0.00,,,0.00,meteohub,2013-08-17 21:42:00,
2013-08-17 16:47:00,79.7,55.9,30.09,East,90,4.0,13.0,44,0.00,,,0.00,meteohub,2013-08-17 21:47:00,
2013-08-17 16:52:00,79.9,55.9,30.09,SE,135,8.0,13.0,44,0.00,,,0.00,meteohub,2013-08-17 21:52:00,
2013-08-17 16:57:00,79.0,55.2,30.09,SE,135,7.0,9.0,44,0.00,,,0.00,meteohub,2013-08-17 21:57:00,
2013-08-17 17:02:00,78.1,55.6,30.09,SE,135,4.0,8.0,46,0.00,,,0.00,meteohub,2013-08-17 22:02:00,
2013-08-17 17:07:00,78.3,55.8,30.09,East,90,4.0,8.0,46,0.00,,,0.00,meteohub,2013-08-17 22:07:00,
2013-08-17 17:12:00,78.3,56.3,30.09,SE,135,2.0,8.0,47,0.00,,,0.00,meteohub,2013-08-17 22:12:00,
2013-08-17 17:17:00,78.3,56.3,30.09,North,0,4.0,5.0,47,0.00,,,0.00,meteohub,2013-08-17 22:17:00,
2013-08-17 17:22:00,79.0,57.0,30.09,SW,225,5.0,5.0,47,0.00,,,0.00,meteohub,2013-08-17 22:22:00,
2013-08-17 17:27:00,79.7,56.5,30.09,West,270,4.0,5.0,45,0.00,,,0.00,meteohub,2013-08-17 22:27:00,
2013-08-17 17:33:00,80.2,57.0,30.09,SE,135,3.0,5.0,45,0.00,,,0.00,meteohub,2013-08-17 22:33:00,
2013-08-17 17:38:00,80.1,56.8,30.09,East,90,2.0,7.0,45,0.00,,,0.00,meteohub,2013-08-17 22:38:00,
2013-08-17 17:43:00,80.4,57.7,30.09,East,90,4.0,7.0,46,0.00,,,0.00,meteohub,2013-08-17 22:43:00,
2013-08-17 17:48:00,80.6,57.9,30.09,SE,135,3.0,7.0,46,0.00,,,0.00,meteohub,2013-08-17 22:48:00,
2013-08-17 17:53:00,79.2,56.7,30.09,East,90,4.0,6.0,46,0.00,,,0.00,meteohub,2013-08-17 22:53:00,
2013-08-17 17:58:00,78.4,57.2,30.09,NE,45,2.0,5.0,48,0.00,,,0.00,meteohub,2013-08-17 22:58:00,
2013-08-17 18:03:00,77.9,57.2,30.09,SE,135,4.0,5.0,49,0.00,,,0.00,meteohub,2013-08-17 23:03:00,
2013-08-17 18:08:00,78.3,58.1,30.09,East,90,3.0,5.0,50,0.00,,,0.00,meteohub,2013-08-17 23:08:00,
2013-08-17 18:13:00,77.7,57.6,30.09,SE,135,5.0,5.0,50,0.00,,,0.00,meteohub,2013-08-17 23:13:00,
2013-08-17 18:18:00,77.9,57.2,30.09,SE,135,4.0,5.0,49,0.00,,,0.00,meteohub,2013-08-17 23:18:00,
2013-08-17 18:23:00,77.7,58.1,30.09,East,90,4.0,6.0,51,0.00,,,0.00,meteohub,2013-08-17 23:23:00,
2013-08-17 18:28:00,77.2,58.3,30.09,SE,135,2.0,6.0,52,0.00,,,0.00,meteohub,2013-08-17 23:28:00,
2013-08-17 18:33:00,77.2,57.7,30.10,South,180,2.0,6.0,51,0.00,,,0.00,meteohub,2013-08-17 23:33:00,
2013-08-17 18:38:00,77.4,57.7,30.09,SE,135,0.0,4.0,51,0.00,,,0.00,meteohub,2013-08-17 23:38:00,
2013-08-17 18:43:00,77.2,57.0,30.09,SE,135,0.0,4.0,50,0.00,,,0.00,meteohub,2013-08-17 23:43:00,
2013-08-17 18:48:00,77.2,57.7,30.09,SE,135,2.0,3.0,51,0.00,,,0.00,meteohub,2013-08-17 23:48:00,
2013-08-17 18:53:00,77.4,57.7,30.09,SE,135,0.0,3.0,51,0.00,,,0.00,meteohub,2013-08-17 23:53:00,
2013-08-17 18:58:00,77.4,57.7,30.09,SE,135,1.0,3.0,51,0.00,,,0.00,meteohub,2013-08-17 23:58:00,
2013-08-17 19:03:00,77.2,57.7,30.09,SE,135,0.0,3.0,51,0.00,,,0.00,meteohub,2013-08-18 00:03:00,
2013-08-17 19:08:00,77.2,57.0,30.09,SE,135,0.0,1.0,50,0.00,,,0.00,meteohub,2013-08-18 00:08:00,
2013-08-17 19:13:00,76.8,58.5,30.09,South,180,0.0,1.0,53,0.00,,,0.00,meteohub,2013-08-18 00:13:00,
2013-08-17 19:18:00,76.8,57.9,30.09,SE,135,0.0,0.0,52,0.00,,,0.00,meteohub,2013-08-18 00:18:00,
2013-08-17 19:23:00,76.5,57.0,30.09,South,180,0.0,0.0,51,0.00,,,0.00,meteohub,2013-08-18 00:23:00,
2013-08-17 19:29:00,76.3,57.4,30.09,SE,135,0.0,0.0,52,0.00,,,0.00,meteohub,2013-08-18 00:29:00,
2013-08-17 19:34:00,75.7,57.4,30.09,SE,135,0.0,0.0,53,0.00,,,0.00,meteohub,2013-08-18 00:34:00,
2013-08-17 19:39:00,75.2,56.8,30.09,South,180,1.0,0.0,53,0.00,,,0.00,meteohub,2013-08-18 00:39:00,
2013-08-17 19:44:00,74.7,57.4,30.09,SE,135,0.0,1.0,55,0.00,,,0.00,meteohub,2013-08-18 00:44:00,
2013-08-17 19:49:00,74.3,57.0,30.09,SE,135,1.0,1.0,55,0.00,,,0.00,meteohub,2013-08-18 00:49:00,
2013-08-17 19:54:00,73.9,56.8,30.09,SE,135,2.0,2.0,55,0.00,,,0.00,meteohub,2013-08-18 00:54:00,
2013-08-17 19:59:00,73.9,56.8,30.09,South,180,0.0,2.0,55,0.00,,,0.00,meteohub,2013-08-18 00:59:00,
2013-08-17 20:04:00,73.8,56.7,30.09,SE,135,0.0,2.0,55,0.00,,,0.00,meteohub,2013-08-18 01:04:00,
2013-08-17 20:09:00,73.6,56.8,30.09,South,180,0.0,2.0,56,0.00,,,0.00,meteohub,2013-08-18 01:09:00,
2013-08-17 20:14:00,73.6,56.8,30.09,SE,135,0.0,2.0,56,0.00,,,0.00,meteohub,2013-08-18 01:14:00,
2013-08-17 20:19:00,73.4,56.7,30.09,SE,135,2.0,2.0,56,0.00,,,0.00,meteohub,2013-08-18 01:19:00,
2013-08-17 20:24:00,73.2,57.0,30.09,SE,135,2.0,2.0,57,0.00,,,0.00,meteohub,2013-08-18 01:24:00,
2013-08-17 20:29:00,73.2,57.0,30.09,SE,135,2.0,2.0,57,0.00,,,0.00,meteohub,2013-08-18 01:29:00,
2013-08-17 20:34:00,73.2,57.0,30.09,East,90,2.0,2.0,57,0.00,,,0.00,meteohub,2013-08-18 01:34:00,
2013-08-17 20:39:00,73.2,57.0,30.09,SE,135,2.0,3.0,57,0.00,,,0.00,meteohub,2013-08-18 01:39:00,
2013-08-17 20:44:00,73.2,56.7,30.09,SE,135,2.0,3.0,56,0.00,,,0.00,meteohub,2013-08-18 01:44:00,
2013-08-17 20:49:00,73.2,56.7,30.09,SE,135,2.0,3.0,56,0.00,,,0.00,meteohub,2013-08-18 01:49:00,
2013-08-17 20:54:00,73.2,56.7,30.09,SE,135,0.0,3.0,56,0.00,,,0.00,meteohub,2013-08-18 01:54:00,
2013-08-17 20:59:00,73.2,56.7,30.09,SE,135,2.0,3.0,56,0.00,,,0.00,meteohub,2013-08-18 01:59:00,
2013-08-17 21:04:00,73.2,56.7,30.09,SE,135,2.0,2.0,56,0.00,,,0.00,meteohub,2013-08-18 02:04:00,
2013-08-17 21:10:00,73.2,56.7,30.09,SE,135,3.0,3.0,56,0.00,,,0.00,meteohub,2013-08-18 02:10:00,
2013-08-17 21:15:00,73.0,56.5,30.09,SE,135,3.0,3.0,56,0.00,,,0.00,meteohub,2013-08-18 02:15:00,
2013-08-17 21:20:00,73.0,56.5,30.10,SE,135,3.0,3.0,56,0.00,,,0.00,meteohub,2013-08-18 02:20:00,
2013-08-17 21:25:00,72.9,56.3,30.10,SE,135,4.0,4.0,56,0.00,,,0.00,meteohub,2013-08-18 02:25:00,
2013-08-17 21:30:00,72.7,56.5,30.10,SE,135,4.0,4.0,57,0.00,,,0.00,meteohub,2013-08-18 02:30:00,
2013-08-17 21:35:00,72.5,56.5,30.10,SE,135,3.0,4.0,57,0.00,,,0.00,meteohub,2013-08-18 02:35:00,
2013-08-17 21:40:00,72.3,56.3,30.09,SE,135,3.0,4.0,57,0.00,,,0.00,meteohub,2013-08-18 02:40:00,
2013-08-17 21:45:00,72.3,56.3,30.09,SE,135,3.0,4.0,57,0.00,,,0.00,meteohub,2013-08-18 02:45:00,
2013-08-17 21:50:00,72.3,56.3,30.10,SE,135,3.0,4.0,57,0.00,,,0.00,meteohub,2013-08-18 02:50:00,
2013-08-17 21:55:00,72.1,56.1,30.09,ESE,113,3.0,4.0,57,0.00,,,0.00,meteohub,2013-08-18 02:55:00,
2013-08-17 22:00:00,72.0,55.9,30.10,SE,135,4.0,4.0,57,0.00,,,0.00,meteohub,2013-08-18 03:00:00,
2013-08-17 22:05:00,72.0,56.3,30.09,East,90,2.0,4.0,58,0.00,,,0.00,meteohub,2013-08-18 03:05:00,
2013-08-17 22:10:00,72.0,56.3,30.09,East,90,2.0,4.0,58,0.00,,,0.00,meteohub,2013-08-18 03:10:00,
2013-08-17 22:15:00,71.4,56.8,30.10,East,90,0.0,4.0,60,0.00,,,0.00,meteohub,2013-08-18 03:15:00,
2013-08-17 22:20:00,70.5,56.8,30.10,NE,45,0.0,4.0,62,0.00,,,0.00,meteohub,2013-08-18 03:20:00,
2013-08-17 22:26:00,69.8,56.7,30.10,East,90,2.0,3.0,63,0.00,,,0.00,meteohub,2013-08-18 03:26:00,
2013-08-17 22:31:00,69.8,57.0,30.10,East,90,2.0,2.0,64,0.00,,,0.00,meteohub,2013-08-18 03:31:00,
2013-08-17 22:36:00,70.0,56.8,30.09,NE,45,0.0,2.0,63,0.00,,,0.00,meteohub,2013-08-18 03:36:00,
2013-08-17 22:41:00,69.8,56.7,30.10,SE,135,0.0,2.0,63,0.00,,,0.00,meteohub,2013-08-18 03:41:00,
2013-08-17 22:46:00,70.0,56.8,30.10,NE,45,0.0,2.0,63,0.00,,,0.00,meteohub,2013-08-18 03:46:00,
2013-08-17 22:51:00,69.8,56.7,30.10,SE,135,0.0,2.0,63,0.00,,,0.00,meteohub,2013-08-18 03:51:00,
2013-08-17 22:56:00,69.6,56.8,30.10,East,90,3.0,0.0,64,0.00,,,0.00,meteohub,2013-08-18 03:56:00,
2013-08-17 23:01:00,70.0,56.3,30.10,East,90,0.0,3.0,62,0.00,,,0.00,meteohub,2013-08-18 04:01:00,
2013-08-17 23:02:00,70.0,56.3,30.10,East,90,0.0,3.0,62,0.00,,,0.00,meteohub,2013-08-18 04:02:00,
2013-08-17 23:07:00,70.9,56.3,30.09,SE,135,4.0,4.0,60,0.00,,,0.00,meteohub,2013-08-18 04:07:00,
2013-08-17 23:12:00,71.2,56.1,30.10,NE,45,1.0,4.0,59,0.00,,,0.00,meteohub,2013-08-18 04:12:00,
2013-08-17 23:16:00,70.9,56.3,30.10,NE,45,0.0,4.0,60,0.00,,,0.00,meteohub,2013-08-18 04:16:00,
2013-08-17 23:21:00,70.3,55.8,30.10,North,0,0.0,4.0,60,0.00,,,0.00,meteohub,2013-08-18 04:21:00,
2013-08-17 23:26:00,70.0,55.9,30.10,NE,45,0.0,3.0,61,0.00,,,0.00,meteohub,2013-08-18 04:26:00,
2013-08-17 23:31:00,69.6,56.5,30.10,East,90,4.0,0.0,63,0.00,,,0.00,meteohub,2013-08-18 04:31:00,
2013-08-17 23:36:00,70.0,56.3,30.10,East,90,4.0,4.0,62,0.00,,,0.00,meteohub,2013-08-18 04:36:00,
2013-08-17 23:41:00,69.8,56.1,30.10,East,90,3.0,4.0,62,0.00,,,0.00,meteohub,2013-08-18 04:41:00,
2013-08-17 23:46:00,69.1,56.5,30.10,East,90,4.0,5.0,64,0.00,,,0.00,meteohub,2013-08-18 04:46:00,
2013-08-17 23:51:00,68.5,56.3,30.11,East,90,2.0,5.0,65,0.00,,,0.00,meteohub,2013-08-18 04:51:00,
2013-08-17 23:56:00,68.2,56.3,30.11,NE,45,3.0,4.0,66,0.00,,,0.00,meteohub,2013-08-18 04:56:00,